User: anonymous   Login
Location: Palmerston North
(40.3500°S, 175.6170°E)
Time: 03:53:24
(UTC+13:00)
Language:

Cosmos 1805 Rocket - Orbit

View from above orbital plane
View from above orbital plane
View from above satellite
View from above satellite

Ground track
Ground track

The orbit data is extracted from the following two-line orbital elements,

1 17192U 86097B   19292.79739748  .00000060  00000-0  43469-5 0  9994
2 17192  82.5081 174.3593 0017421 159.4433 244.4976 14.83587451775384
Epoch (UTC): 19 October 2019 19:08:15
Eccentricity: 0.0017421
inclination: 82.5081°
perigee height: 606 km
apogee height: 630 km
right ascension of ascending node: 174.3593°
argument of perigee: 159.4433°
revolutions per day: 14.83587451
mean anomaly at epoch: 244.4976°
orbit number at epoch: 77538

The dashed part of the orbit path shows where the satellite is in the earth's shadow,  

DLR